Year,Month,Day,Hour,Minute,Value (Times are PST for temperature in C)
2014,09,14,00,00,15.70
2014,09,14,00,01,15.70
2014,09,14,00,02,15.70
2014,09,14,00,03,15.70
2014,09,14,00,04,15.70
2014,09,14,00,05,15.60
2014,09,14,00,06,15.60
2014,09,14,00,07,15.60
2014,09,14,00,08,15.60
2014,09,14,00,09,15.60
2014,09,14,00,10,15.60
2014,09,14,00,11,15.50
2014,09,14,00,12,15.50
2014,09,14,00,13,15.50
2014,09,14,00,14,15.40
2014,09,14,00,15,15.40
2014,09,14,00,16,15.40
2014,09,14,00,17,15.30
2014,09,14,00,18,15.30
2014,09,14,00,19,15.30
2014,09,14,00,20,15.20
2014,09,14,00,21,15.20
2014,09,14,00,22,15.20
2014,09,14,00,23,15.10
2014,09,14,00,24,15.10
2014,09,14,00,25,15.10
2014,09,14,00,26,15.10
2014,09,14,00,27,15.10
2014,09,14,00,28,15.10
2014,09,14,00,29,15.10
2014,09,14,00,30,15.10
2014,09,14,00,31,15.10
2014,09,14,00,32,15.10
2014,09,14,00,33,15.10
2014,09,14,00,34,15.00
2014,09,14,00,35,15.00
2014,09,14,00,36,15.00
2014,09,14,00,37,15.00
2014,09,14,00,38,14.90
2014,09,14,00,39,14.90
2014,09,14,00,40,14.90
2014,09,14,00,41,14.90
2014,09,14,00,42,14.80
2014,09,14,00,43,14.80
2014,09,14,00,44,14.80
2014,09,14,00,45,14.80
2014,09,14,00,46,14.80
2014,09,14,00,47,14.70
2014,09,14,00,48,14.70
2014,09,14,00,49,14.70
2014,09,14,00,50,14.70
2014,09,14,00,51,14.70
2014,09,14,00,52,14.60
2014,09,14,00,53,14.60
2014,09,14,00,54,14.60
2014,09,14,00,55,14.60
2014,09,14,00,56,14.60
2014,09,14,00,57,14.60
2014,09,14,00,58,14.60
2014,09,14,00,59,14.60
2014,09,14,01,00,14.60
2014,09,14,01,01,14.60
2014,09,14,01,02,14.60
2014,09,14,01,03,14.60
2014,09,14,01,04,14.60
2014,09,14,01,05,14.60
2014,09,14,01,06,14.60
2014,09,14,01,07,14.60
2014,09,14,01,08,14.60
2014,09,14,01,09,14.60
2014,09,14,01,10,14.60
2014,09,14,01,11,14.60
2014,09,14,01,12,14.60
2014,09,14,01,13,14.50
2014,09,14,01,14,14.50
2014,09,14,01,15,14.40
2014,09,14,01,16,14.40
2014,09,14,01,17,14.40
2014,09,14,01,18,14.40
2014,09,14,01,19,14.40
2014,09,14,01,20,14.30
2014,09,14,01,21,14.30
2014,09,14,01,22,14.30
2014,09,14,01,23,14.30
2014,09,14,01,24,14.30
2014,09,14,01,25,14.30
2014,09,14,01,26,14.30
2014,09,14,01,27,14.30
2014,09,14,01,28,14.30
2014,09,14,01,29,14.30
2014,09,14,01,30,14.30
2014,09,14,01,31,14.30
2014,09,14,01,32,14.30
2014,09,14,01,33,14.30
2014,09,14,01,34,14.30
2014,09,14,01,35,14.30
2014,09,14,01,36,14.30
2014,09,14,01,37,14.30
2014,09,14,01,38,14.30
2014,09,14,01,39,14.30
2014,09,14,01,40,14.30
2014,09,14,01,41,14.30
2014,09,14,01,42,14.30
2014,09,14,01,43,14.30
2014,09,14,01,44,14.30
2014,09,14,01,45,14.30
2014,09,14,01,46,14.30
2014,09,14,01,47,14.30
2014,09,14,01,48,14.30
2014,09,14,01,49,14.30
2014,09,14,01,50,14.30
2014,09,14,01,51,14.20
2014,09,14,01,52,14.20
2014,09,14,01,53,14.20
2014,09,14,01,54,14.20
2014,09,14,01,55,14.20
2014,09,14,01,56,14.10
2014,09,14,01,57,14.10
2014,09,14,01,58,14.10
2014,09,14,01,59,14.10
2014,09,14,02,00,14.10
2014,09,14,02,01,14.00
2014,09,14,02,02,14.00
2014,09,14,02,03,14.00
2014,09,14,02,04,14.00
2014,09,14,02,05,13.90
2014,09,14,02,06,13.90
2014,09,14,02,07,13.90
2014,09,14,02,08,13.90
2014,09,14,02,09,13.80
2014,09,14,02,10,13.80
2014,09,14,02,11,13.80
2014,09,14,02,12,13.80
2014,09,14,02,13,13.80
2014,09,14,02,14,13.70
2014,09,14,02,15,13.70
2014,09,14,02,16,13.70
2014,09,14,02,17,13.60
2014,09,14,02,18,13.60
2014,09,14,02,19,13.60
2014,09,14,02,20,13.60
2014,09,14,02,21,13.60
2014,09,14,02,22,13.50
2014,09,14,02,23,13.50
2014,09,14,02,24,13.50
2014,09,14,02,25,13.50
2014,09,14,02,26,13.50
2014,09,14,02,27,13.50
2014,09,14,02,28,13.50
2014,09,14,02,29,13.50
2014,09,14,02,30,13.40
2014,09,14,02,31,13.40
2014,09,14,02,32,13.40
2014,09,14,02,33,13.40
2014,09,14,02,34,13.40
2014,09,14,02,35,13.40
2014,09,14,02,36,13.40
2014,09,14,02,37,13.30
2014,09,14,02,38,13.30
2014,09,14,02,39,13.30
2014,09,14,02,40,13.30
2014,09,14,02,41,13.30
2014,09,14,02,42,13.30
2014,09,14,02,43,13.30
2014,09,14,02,44,13.30
2014,09,14,02,45,13.30
2014,09,14,02,46,13.40
2014,09,14,02,47,13.40
2014,09,14,02,48,13.40
2014,09,14,02,49,13.40
2014,09,14,02,50,13.50
2014,09,14,02,51,13.50
2014,09,14,02,52,13.60
2014,09,14,02,53,13.60
2014,09,14,02,54,13.70
2014,09,14,02,55,13.70
2014,09,14,02,56,13.80
2014,09,14,02,57,13.80
2014,09,14,02,58,13.90
2014,09,14,02,59,14.00
2014,09,14,03,00,14.10
2014,09,14,03,01,14.20
2014,09,14,03,02,14.30
2014,09,14,03,06,14.60
2014,09,14,03,07,14.60
2014,09,14,03,08,14.70
2014,09,14,03,09,14.70
2014,09,14,03,10,14.70
2014,09,14,03,11,14.80
2014,09,14,03,12,14.80
2014,09,14,03,13,14.80
2014,09,14,03,14,14.80
2014,09,14,03,15,14.80
2014,09,14,03,16,14.80
2014,09,14,03,17,14.80
2014,09,14,03,18,14.80
2014,09,14,03,19,14.80
2014,09,14,03,20,14.70
2014,09,14,03,21,14.70
2014,09,14,03,22,14.70
2014,09,14,03,23,14.60
2014,09,14,03,24,14.60
2014,09,14,03,25,14.50
2014,09,14,03,26,14.50
2014,09,14,03,27,14.50
2014,09,14,03,28,14.40
2014,09,14,03,29,14.40
2014,09,14,03,30,14.40
2014,09,14,03,31,14.40
2014,09,14,03,32,14.40
2014,09,14,03,33,14.40
2014,09,14,03,34,14.40
2014,09,14,03,35,14.30
2014,09,14,03,36,14.30
2014,09,14,03,37,14.30
2014,09,14,03,38,14.30
2014,09,14,03,39,14.30
2014,09,14,03,40,14.30
2014,09,14,03,41,14.30
2014,09,14,03,42,14.20
2014,09,14,03,43,14.20
2014,09,14,03,44,14.20
2014,09,14,03,45,14.20
2014,09,14,03,46,14.20
2014,09,14,03,47,14.20
2014,09,14,03,48,14.20
2014,09,14,03,49,14.20
2014,09,14,03,50,14.20
2014,09,14,03,51,14.20
2014,09,14,03,52,14.20
2014,09,14,03,53,14.20
2014,09,14,03,54,14.20
2014,09,14,03,55,14.20
2014,09,14,03,56,14.20
2014,09,14,03,57,14.20
2014,09,14,03,58,14.20
2014,09,14,03,59,14.20
2014,09,14,04,00,14.20
2014,09,14,04,01,14.20
2014,09,14,04,02,14.20
2014,09,14,04,03,14.10
2014,09,14,04,04,14.10
2014,09,14,04,05,14.10
2014,09,14,04,06,14.00
2014,09,14,04,07,14.00
2014,09,14,04,08,14.00
2014,09,14,04,09,13.90
2014,09,14,04,10,13.90
2014,09,14,04,11,13.90
2014,09,14,04,12,13.90
2014,09,14,04,13,13.90
2014,09,14,04,14,13.90
2014,09,14,04,15,13.80
2014,09,14,04,16,13.80
2014,09,14,04,17,13.80
2014,09,14,04,18,13.80
2014,09,14,04,19,13.80
2014,09,14,04,20,13.70
2014,09,14,04,21,13.70
2014,09,14,04,22,13.70
2014,09,14,04,23,13.60
2014,09,14,04,24,13.60
2014,09,14,04,25,13.60
2014,09,14,04,26,13.50
2014,09,14,04,27,13.50
2014,09,14,04,28,13.40
2014,09,14,04,29,13.40
2014,09,14,04,30,13.30
2014,09,14,04,31,13.30
2014,09,14,04,32,13.30
2014,09,14,04,33,13.20
2014,09,14,04,34,13.20
2014,09,14,04,35,13.20
2014,09,14,04,36,13.10
2014,09,14,04,37,13.10
2014,09,14,04,38,13.10
2014,09,14,04,39,13.10
2014,09,14,04,40,13.00
2014,09,14,04,41,13.00
2014,09,14,04,42,12.90
2014,09,14,04,43,12.90
2014,09,14,04,44,12.90
2014,09,14,04,45,12.90
2014,09,14,04,46,12.80
2014,09,14,04,47,12.80
2014,09,14,04,48,12.80
2014,09,14,04,49,12.80
2014,09,14,04,50,12.80
2014,09,14,04,51,12.80
2014,09,14,04,52,12.70
2014,09,14,04,53,12.70
2014,09,14,04,54,12.70
2014,09,14,04,55,12.70
2014,09,14,04,56,12.70
2014,09,14,04,57,12.70
2014,09,14,04,58,12.70
2014,09,14,04,59,12.70
2014,09,14,05,00,12.70
2014,09,14,05,01,12.70
2014,09,14,05,02,12.60
2014,09,14,05,03,12.60
2014,09,14,05,04,12.60
2014,09,14,05,05,12.60
2014,09,14,05,06,12.60
2014,09,14,05,07,12.60
2014,09,14,05,08,12.60
2014,09,14,05,09,12.60
2014,09,14,05,10,12.60
2014,09,14,05,11,12.70
2014,09,14,05,12,12.70
2014,09,14,05,13,12.70
2014,09,14,05,14,12.70
2014,09,14,05,15,12.70
2014,09,14,05,16,12.70
2014,09,14,05,17,12.80
2014,09,14,05,18,12.80
2014,09,14,05,19,12.90
2014,09,14,05,20,12.90
2014,09,14,05,21,13.00
2014,09,14,05,22,13.00
2014,09,14,05,23,13.10
2014,09,14,05,24,13.10
2014,09,14,05,25,13.10
2014,09,14,05,26,13.20
2014,09,14,05,27,13.20
2014,09,14,05,28,13.20
2014,09,14,05,29,13.30
2014,09,14,05,30,13.30
2014,09,14,05,31,13.30
2014,09,14,05,32,13.30
2014,09,14,05,33,13.30
2014,09,14,05,34,13.30
2014,09,14,05,35,13.30
2014,09,14,05,36,13.30
2014,09,14,05,37,13.30
2014,09,14,05,38,13.30
2014,09,14,05,39,13.20
2014,09,14,05,40,13.20
2014,09,14,05,41,13.20
2014,09,14,05,42,13.10
2014,09,14,05,43,13.10
2014,09,14,05,44,13.00
2014,09,14,05,45,12.90
2014,09,14,05,46,12.90
2014,09,14,05,47,12.80
2014,09,14,05,48,12.80
2014,09,14,05,49,12.80
2014,09,14,05,50,12.70
2014,09,14,05,51,12.70
2014,09,14,05,52,12.70
2014,09,14,05,53,12.60
2014,09,14,05,54,12.60
2014,09,14,05,55,12.60
2014,09,14,05,56,12.50
2014,09,14,05,57,12.50
2014,09,14,05,58,12.50
2014,09,14,05,59,12.40
2014,09,14,06,00,12.40
2014,09,14,06,01,12.30
2014,09,14,06,02,12.30
2014,09,14,06,03,12.20
2014,09,14,06,04,12.20
2014,09,14,06,05,12.10
2014,09,14,06,06,12.10
2014,09,14,06,07,12.00
2014,09,14,06,08,12.00
2014,09,14,06,09,11.90
2014,09,14,06,10,11.90
2014,09,14,06,11,11.90
2014,09,14,06,12,11.80
2014,09,14,06,13,11.80
2014,09,14,06,14,11.80
2014,09,14,06,15,11.70
2014,09,14,06,16,11.70
2014,09,14,06,17,11.70
2014,09,14,06,18,11.70
2014,09,14,06,19,11.60
2014,09,14,06,20,11.60
2014,09,14,06,21,11.60
2014,09,14,06,22,11.60
2014,09,14,06,23,11.60
2014,09,14,06,24,11.50
2014,09,14,06,25,11.50
2014,09,14,06,26,11.50
2014,09,14,06,27,11.40
2014,09,14,06,28,11.40
2014,09,14,06,29,11.40
2014,09,14,06,30,11.30
2014,09,14,06,31,11.30
2014,09,14,06,32,11.30
2014,09,14,06,33,11.30
2014,09,14,06,34,11.30
2014,09,14,06,35,11.20
2014,09,14,06,36,11.20
2014,09,14,06,37,11.20
2014,09,14,06,38,11.20
2014,09,14,06,39,11.20
2014,09,14,06,40,11.20
2014,09,14,06,41,11.20
2014,09,14,06,42,11.20
2014,09,14,06,43,11.10
2014,09,14,06,44,11.10
2014,09,14,06,45,11.10
2014,09,14,06,46,11.10
2014,09,14,06,47,11.10
2014,09,14,06,48,11.10
2014,09,14,06,49,11.10
2014,09,14,06,50,11.10
2014,09,14,06,51,11.10
2014,09,14,06,52,11.10
2014,09,14,06,53,11.10
2014,09,14,06,54,11.20
2014,09,14,06,55,11.20
2014,09,14,06,56,11.20
2014,09,14,06,57,11.20
2014,09,14,06,58,11.20
2014,09,14,06,59,11.20
2014,09,14,07,00,11.30
2014,09,14,07,01,11.30
2014,09,14,07,02,11.30
2014,09,14,07,03,11.30
2014,09,14,07,04,11.30
2014,09,14,07,05,11.30
2014,09,14,07,06,11.30
2014,09,14,07,07,11.40
2014,09,14,07,08,11.40
2014,09,14,07,09,11.40
2014,09,14,07,10,11.40
2014,09,14,07,11,11.40
2014,09,14,07,12,11.50
2014,09,14,07,13,11.50
2014,09,14,07,14,11.50
2014,09,14,07,15,11.60
2014,09,14,07,16,11.70
2014,09,14,07,17,11.90
2014,09,14,07,18,12.10
2014,09,14,07,19,12.30
2014,09,14,07,20,12.50
2014,09,14,07,21,12.70
2014,09,14,07,22,12.90
2014,09,14,07,23,13.10
2014,09,14,07,24,13.30
2014,09,14,07,25,13.50
2014,09,14,07,26,13.70
2014,09,14,07,27,13.80
2014,09,14,07,28,14.00
2014,09,14,07,29,14.10
2014,09,14,07,30,14.30
2014,09,14,07,31,14.40
2014,09,14,07,32,14.50
2014,09,14,07,33,14.60
2014,09,14,07,34,14.70
2014,09,14,07,35,14.80
2014,09,14,07,36,14.90
2014,09,14,07,37,14.90
2014,09,14,07,38,15.00
2014,09,14,07,39,15.00
2014,09,14,07,40,15.10
2014,09,14,07,41,15.10
2014,09,14,07,42,15.10
2014,09,14,07,43,15.20
2014,09,14,07,44,15.20
2014,09,14,07,45,15.30
2014,09,14,07,46,15.30
2014,09,14,07,47,15.40
2014,09,14,07,48,15.40
2014,09,14,07,49,15.40
2014,09,14,07,50,15.50
2014,09,14,07,51,15.50
2014,09,14,07,52,15.50
2014,09,14,07,53,15.60
2014,09,14,07,54,15.60
2014,09,14,07,55,15.60
2014,09,14,07,56,15.70
2014,09,14,07,57,15.70
2014,09,14,07,58,15.70
2014,09,14,07,59,15.70
2014,09,14,08,00,15.70
2014,09,14,08,01,15.70
2014,09,14,08,02,15.70
2014,09,14,08,03,15.70
2014,09,14,08,04,15.80
2014,09,14,08,05,15.70
2014,09,14,08,06,15.70
2014,09,14,08,07,15.70
2014,09,14,08,08,15.70
2014,09,14,08,09,15.70
2014,09,14,08,10,15.70
2014,09,14,08,11,15.70
2014,09,14,08,12,15.70
2014,09,14,08,13,15.60
2014,09,14,08,14,15.60
2014,09,14,08,15,15.60
2014,09,14,08,16,15.60
2014,09,14,08,17,15.60
2014,09,14,08,18,15.60
2014,09,14,08,19,15.60
2014,09,14,08,20,15.60
2014,09,14,08,21,15.70
2014,09,14,08,22,15.70
2014,09,14,08,23,15.70
2014,09,14,08,24,15.70
2014,09,14,08,25,15.80
2014,09,14,08,26,15.80
2014,09,14,08,27,15.80
2014,09,14,08,28,15.90
2014,09,14,08,29,15.90
2014,09,14,08,30,15.90
2014,09,14,08,31,16.00
2014,09,14,08,32,16.00
2014,09,14,08,33,16.10
2014,09,14,08,34,16.10
2014,09,14,08,35,16.10
2014,09,14,08,36,16.20
2014,09,14,08,37,16.20
2014,09,14,08,38,16.30
2014,09,14,08,39,16.30
2014,09,14,08,40,16.40
2014,09,14,08,41,16.40
2014,09,14,08,42,16.50
2014,09,14,08,43,16.50
2014,09,14,08,44,16.60
2014,09,14,08,45,16.70
2014,09,14,08,46,16.70
2014,09,14,08,47,16.80
2014,09,14,08,48,16.80
2014,09,14,08,49,16.90
2014,09,14,08,50,16.90
2014,09,14,08,51,17.00
2014,09,14,08,52,17.00
2014,09,14,08,53,17.00
2014,09,14,08,54,17.10
2014,09,14,08,55,17.10
2014,09,14,08,56,17.10
2014,09,14,08,57,17.10
2014,09,14,08,58,17.20
2014,09,14,08,59,17.20
2014,09,14,09,00,17.30
2014,09,14,09,01,17.30
2014,09,14,09,02,17.30
2014,09,14,09,03,17.30
2014,09,14,09,04,17.40
2014,09,14,09,05,17.40
2014,09,14,09,06,17.40
2014,09,14,09,07,17.50
2014,09,14,09,08,17.50
2014,09,14,09,09,17.60
2014,09,14,09,10,17.60
2014,09,14,09,11,17.60
2014,09,14,09,12,17.60
2014,09,14,09,13,17.70
2014,09,14,09,14,17.70
2014,09,14,09,15,17.70
2014,09,14,09,16,17.70
2014,09,14,09,17,17.70
2014,09,14,09,18,17.80
2014,09,14,09,19,17.80
2014,09,14,09,20,17.80
2014,09,14,09,21,17.80
2014,09,14,09,22,17.80
2014,09,14,09,23,17.90
2014,09,14,09,24,17.90
2014,09,14,09,25,17.90
2014,09,14,09,26,17.90
2014,09,14,09,27,17.90
2014,09,14,09,28,17.90
2014,09,14,09,29,18.00
2014,09,14,09,30,18.00
2014,09,14,09,31,18.10
2014,09,14,09,32,18.10
2014,09,14,09,33,18.10
2014,09,14,09,34,18.10
2014,09,14,09,35,18.20
2014,09,14,09,36,18.20
2014,09,14,09,37,18.20
2014,09,14,09,38,18.30
2014,09,14,09,39,18.30
2014,09,14,09,40,18.30
2014,09,14,09,41,18.30
2014,09,14,09,42,18.40
2014,09,14,09,43,18.40
2014,09,14,09,44,18.40
2014,09,14,09,45,18.50
2014,09,14,09,46,18.50
2014,09,14,09,47,18.60
2014,09,14,09,48,18.60
2014,09,14,09,49,18.70
2014,09,14,09,50,18.70
2014,09,14,09,51,18.70
2014,09,14,09,52,18.80
2014,09,14,09,53,18.80
2014,09,14,09,54,18.80
2014,09,14,09,55,18.80
2014,09,14,09,56,18.90
2014,09,14,09,57,18.90
2014,09,14,09,58,18.90
2014,09,14,09,59,18.90
2014,09,14,10,00,18.90
2014,09,14,10,01,19.00
2014,09,14,10,02,19.00
2014,09,14,10,03,19.00
2014,09,14,10,04,19.00
2014,09,14,10,05,19.10
2014,09,14,10,06,19.10
2014,09,14,10,07,19.10
2014,09,14,10,08,19.10
2014,09,14,10,09,19.10
2014,09,14,10,10,19.10
2014,09,14,10,11,19.10
2014,09,14,10,12,19.10
2014,09,14,10,13,19.10
2014,09,14,10,14,19.10
2014,09,14,10,15,19.20
2014,09,14,10,16,19.20
2014,09,14,10,17,19.20
2014,09,14,10,18,19.30
2014,09,14,10,19,19.30
2014,09,14,10,20,19.30
2014,09,14,10,21,19.40
2014,09,14,10,22,19.40
2014,09,14,10,23,19.40
2014,09,14,10,24,19.40
2014,09,14,10,25,19.50
2014,09,14,10,26,19.50
2014,09,14,10,27,19.50
2014,09,14,10,28,19.60
2014,09,14,10,29,19.60
2014,09,14,10,30,19.70
2014,09,14,10,31,19.70
2014,09,14,10,32,19.70
2014,09,14,10,33,19.80
2014,09,14,10,34,19.80
2014,09,14,10,35,19.80
2014,09,14,10,36,19.90
2014,09,14,10,37,19.90
2014,09,14,10,38,19.90
2014,09,14,10,39,20.00
2014,09,14,10,40,20.00
2014,09,14,10,41,20.00
2014,09,14,10,42,20.00
2014,09,14,10,43,20.10
2014,09,14,10,44,20.10
2014,09,14,10,45,20.10
2014,09,14,10,46,20.10
2014,09,14,10,47,20.10
2014,09,14,10,48,20.10
2014,09,14,10,49,20.20
2014,09,14,10,50,20.20
2014,09,14,10,51,20.20
2014,09,14,10,52,20.30
2014,09,14,10,53,20.30
2014,09,14,10,54,20.30
2014,09,14,10,55,20.30
2014,09,14,10,56,20.30
2014,09,14,10,57,20.40
2014,09,14,10,58,20.40
2014,09,14,10,59,20.40
2014,09,14,11,00,20.40
2014,09,14,11,01,20.40
2014,09,14,11,02,20.50
2014,09,14,11,03,20.50
2014,09,14,11,04,20.50
2014,09,14,11,05,20.60
2014,09,14,11,06,20.60
2014,09,14,11,07,20.60
2014,09,14,11,08,20.70
2014,09,14,11,09,20.70
2014,09,14,11,10,20.80
2014,09,14,11,11,20.80
2014,09,14,11,12,20.90
2014,09,14,11,13,20.90
2014,09,14,11,14,21.00
2014,09,14,11,15,21.00
2014,09,14,11,16,21.10
2014,09,14,11,17,21.10
2014,09,14,11,18,21.10
2014,09,14,11,19,21.10
2014,09,14,11,20,21.10
2014,09,14,11,21,21.10
2014,09,14,11,22,21.10
2014,09,14,11,23,21.10
2014,09,14,11,24,21.10
2014,09,14,11,25,21.20
2014,09,14,11,26,21.20
2014,09,14,11,27,21.30
2014,09,14,11,28,21.40
2014,09,14,11,29,21.40
2014,09,14,11,30,21.40
2014,09,14,11,31,21.50
2014,09,14,11,32,21.50
2014,09,14,11,33,21.60
2014,09,14,11,34,21.60
2014,09,14,11,35,21.60
2014,09,14,11,36,21.60
2014,09,14,11,37,21.60
2014,09,14,11,38,21.60
2014,09,14,11,39,21.60
2014,09,14,11,40,21.60
2014,09,14,11,41,21.60
2014,09,14,11,42,21.60
2014,09,14,11,43,21.60
2014,09,14,11,44,21.60
2014,09,14,11,45,21.60
2014,09,14,11,46,21.60
2014,09,14,11,47,21.60
2014,09,14,11,48,21.60
2014,09,14,11,49,21.60
2014,09,14,11,50,21.70
2014,09,14,11,51,21.70
2014,09,14,11,52,21.70
2014,09,14,11,53,21.80
2014,09,14,11,54,21.80
2014,09,14,11,55,21.80
2014,09,14,11,56,21.80
2014,09,14,11,57,21.80
2014,09,14,11,58,21.80
2014,09,14,11,59,21.80
2014,09,14,12,00,21.80
2014,09,14,12,01,21.90
2014,09,14,12,02,21.90
2014,09,14,12,03,21.90
2014,09,14,12,04,21.90
2014,09,14,12,05,22.00
2014,09,14,12,06,22.00
2014,09,14,12,07,22.00
2014,09,14,12,08,22.00
2014,09,14,12,09,22.10
2014,09,14,12,10,22.00
2014,09,14,12,11,22.00
2014,09,14,12,12,22.00
2014,09,14,12,13,22.00
2014,09,14,12,14,22.00
2014,09,14,12,15,22.00
2014,09,14,12,16,22.00
2014,09,14,12,17,22.10
2014,09,14,12,18,22.10
2014,09,14,12,19,22.20
2014,09,14,12,20,22.30
2014,09,14,12,21,22.30
2014,09,14,12,22,22.30
2014,09,14,12,23,22.30
2014,09,14,12,24,22.30
2014,09,14,12,25,22.30
2014,09,14,12,26,22.40
2014,09,14,12,27,22.40
2014,09,14,12,28,22.40
2014,09,14,12,29,22.40
2014,09,14,12,30,22.40
2014,09,14,12,31,22.40
2014,09,14,12,32,22.50
2014,09,14,12,33,22.60
2014,09,14,12,34,22.60
2014,09,14,12,35,22.60
2014,09,14,12,36,22.70
2014,09,14,12,37,22.70
2014,09,14,12,38,22.70
2014,09,14,12,39,22.70
2014,09,14,12,40,22.80
2014,09,14,12,41,22.80
2014,09,14,12,42,22.80
2014,09,14,12,43,22.80
2014,09,14,12,44,22.80
2014,09,14,12,45,22.80
2014,09,14,12,46,22.80
2014,09,14,12,47,22.80
2014,09,14,12,48,22.80
2014,09,14,12,49,22.90
2014,09,14,12,50,22.90
2014,09,14,12,51,22.90
2014,09,14,12,52,23.00
2014,09,14,12,53,23.00
2014,09,14,12,54,23.00
2014,09,14,12,55,23.00
2014,09,14,12,56,23.10
2014,09,14,12,57,23.10
2014,09,14,12,58,23.10
2014,09,14,12,59,23.10
2014,09,14,13,00,23.20
2014,09,14,13,01,23.20
2014,09,14,13,02,23.20
2014,09,14,13,03,23.30
2014,09,14,13,04,23.30
2014,09,14,13,05,23.30
2014,09,14,13,06,23.20
2014,09,14,13,07,23.20
2014,09,14,13,08,23.20
2014,09,14,13,09,23.20
2014,09,14,13,10,23.20
2014,09,14,13,11,23.20
2014,09,14,13,12,23.20
2014,09,14,13,13,23.20
2014,09,14,13,14,23.20
2014,09,14,13,15,23.20
2014,09,14,13,16,23.20
2014,09,14,13,17,23.20
2014,09,14,13,18,23.20
2014,09,14,13,19,23.20
2014,09,14,13,20,23.20
2014,09,14,13,21,23.30
2014,09,14,13,22,23.30
2014,09,14,13,23,23.30
2014,09,14,13,24,23.30
2014,09,14,13,25,23.30
2014,09,14,13,26,23.30
2014,09,14,13,27,23.30
2014,09,14,13,28,23.30
2014,09,14,13,29,23.30
2014,09,14,13,30,23.30
2014,09,14,13,31,23.30
2014,09,14,13,32,23.30
2014,09,14,13,33,23.30
2014,09,14,13,34,23.30
2014,09,14,13,35,23.30
2014,09,14,13,36,23.40
2014,09,14,13,37,23.40
2014,09,14,13,38,23.40
2014,09,14,13,39,23.40
2014,09,14,13,40,23.40
2014,09,14,13,41,23.40
2014,09,14,13,42,23.40
2014,09,14,13,43,23.40
2014,09,14,13,44,23.50
2014,09,14,13,45,23.50
2014,09,14,13,46,23.50
2014,09,14,13,47,23.60
2014,09,14,13,48,23.60
2014,09,14,13,49,23.70
2014,09,14,13,50,23.70
2014,09,14,13,51,23.70
2014,09,14,13,52,23.70
2014,09,14,13,53,23.70
2014,09,14,13,54,23.70
2014,09,14,13,55,23.80
2014,09,14,13,56,23.80
2014,09,14,13,57,23.80
2014,09,14,13,58,23.90
2014,09,14,13,59,23.90
2014,09,14,14,00,23.90
2014,09,14,14,01,24.00
2014,09,14,14,02,24.00
2014,09,14,14,03,24.00
2014,09,14,14,04,24.00
2014,09,14,14,05,24.00
2014,09,14,14,06,24.10
2014,09,14,14,07,24.10
2014,09,14,14,08,24.10
2014,09,14,14,09,24.20
2014,09,14,14,10,24.20
2014,09,14,14,11,24.20
2014,09,14,14,12,24.10
2014,09,14,14,13,24.10
2014,09,14,14,14,24.10
2014,09,14,14,15,24.10
2014,09,14,14,16,24.10
2014,09,14,14,17,24.20
2014,09,14,14,18,24.20
2014,09,14,14,19,24.30
2014,09,14,14,20,24.30
2014,09,14,14,21,24.30
2014,09,14,14,22,24.40
2014,09,14,14,23,24.40
2014,09,14,14,24,24.30
2014,09,14,14,25,24.30
2014,09,14,14,26,24.30
2014,09,14,14,27,24.30
2014,09,14,14,28,24.40
2014,09,14,14,29,24.40
2014,09,14,14,30,24.40
2014,09,14,14,31,24.40
2014,09,14,14,32,24.40
2014,09,14,14,33,24.40
2014,09,14,14,34,24.40
2014,09,14,14,35,24.40
2014,09,14,14,36,24.30
2014,09,14,14,37,24.40
2014,09,14,14,38,24.40
2014,09,14,14,39,24.40
2014,09,14,14,40,24.40
2014,09,14,14,41,24.50
2014,09,14,14,42,24.50
2014,09,14,14,43,24.60
2014,09,14,14,44,24.60
2014,09,14,14,45,24.60
2014,09,14,14,46,24.60
2014,09,14,14,47,24.50
2014,09,14,14,48,24.50
2014,09,14,14,49,24.50
2014,09,14,14,50,24.40
2014,09,14,14,51,24.40
2014,09,14,14,52,24.40
2014,09,14,14,53,24.40
2014,09,14,14,54,24.40
2014,09,14,14,55,24.40
2014,09,14,14,56,24.40
2014,09,14,14,57,24.40
2014,09,14,14,58,24.50
2014,09,14,14,59,24.50
2014,09,14,15,00,24.50
2014,09,14,15,01,24.50
2014,09,14,15,02,24.50
2014,09,14,15,03,24.50
2014,09,14,15,04,24.60
2014,09,14,15,05,24.60
2014,09,14,15,06,24.60
2014,09,14,15,07,24.60
2014,09,14,15,08,24.60
2014,09,14,15,09,24.60
2014,09,14,15,10,24.60
2014,09,14,15,11,24.70
2014,09,14,15,12,24.80
2014,09,14,15,13,24.80
2014,09,14,15,14,24.90
2014,09,14,15,15,24.90
2014,09,14,15,16,24.90
2014,09,14,15,17,24.90
2014,09,14,15,18,24.80
2014,09,14,15,19,24.80
2014,09,14,15,20,24.80
2014,09,14,15,21,24.70
2014,09,14,15,22,24.70
2014,09,14,15,23,24.70
2014,09,14,15,24,24.70
2014,09,14,15,25,24.70
2014,09,14,15,26,24.70
2014,09,14,15,27,24.70
2014,09,14,15,28,24.70
2014,09,14,15,29,24.70
2014,09,14,15,30,24.80
2014,09,14,15,31,24.80
2014,09,14,15,32,24.80
2014,09,14,15,33,24.80
2014,09,14,15,34,24.80
2014,09,14,15,35,24.80
2014,09,14,15,36,24.80
2014,09,14,15,37,24.80
2014,09,14,15,38,24.80
2014,09,14,15,39,24.80
2014,09,14,15,40,24.80
2014,09,14,15,41,24.70
2014,09,14,15,42,24.70
2014,09,14,15,43,24.70
2014,09,14,15,44,24.70
2014,09,14,15,45,24.70
2014,09,14,15,46,24.70
2014,09,14,15,47,24.80
2014,09,14,15,48,24.80
2014,09,14,15,49,24.80
2014,09,14,15,50,24.90
2014,09,14,15,51,24.90
2014,09,14,15,52,25.00
2014,09,14,15,53,25.10
2014,09,14,15,54,25.20
2014,09,14,15,55,25.20
2014,09,14,15,56,25.20
2014,09,14,15,57,25.20
2014,09,14,15,58,25.20
2014,09,14,15,59,25.20
2014,09,14,16,00,25.20
2014,09,14,16,01,25.20
2014,09,14,16,02,25.20
2014,09,14,16,03,25.20
2014,09,14,16,04,25.20
2014,09,14,16,05,25.20
2014,09,14,16,06,25.20
2014,09,14,16,07,25.20
2014,09,14,16,08,25.30
2014,09,14,16,09,25.30
2014,09,14,16,10,25.30
2014,09,14,16,11,25.30
2014,09,14,16,12,25.40
2014,09,14,16,13,25.40
2014,09,14,16,14,25.40
2014,09,14,16,15,25.30
2014,09,14,16,16,25.30
2014,09,14,16,17,25.30
2014,09,14,16,18,25.30
2014,09,14,16,19,25.30
2014,09,14,16,20,25.30
2014,09,14,16,21,25.20
2014,09,14,16,22,25.20
2014,09,14,16,23,25.20
2014,09,14,16,24,25.20
2014,09,14,16,25,25.20
2014,09,14,16,26,25.20
2014,09,14,16,27,25.20
2014,09,14,16,28,25.20
2014,09,14,16,29,25.20
2014,09,14,16,30,25.10
2014,09,14,16,31,25.10
2014,09,14,16,32,25.10
2014,09,14,16,33,25.10
2014,09,14,16,34,25.10
2014,09,14,16,35,25.10
2014,09,14,16,36,25.10
2014,09,14,16,37,25.20
2014,09,14,16,38,25.20
2014,09,14,16,39,25.20
2014,09,14,16,40,25.20
2014,09,14,16,41,25.10
2014,09,14,16,42,25.10
2014,09,14,16,43,25.10
2014,09,14,16,44,25.10
2014,09,14,16,45,25.10
2014,09,14,16,46,25.10
2014,09,14,16,47,25.10
2014,09,14,16,48,25.10
2014,09,14,16,49,25.10
2014,09,14,16,50,25.10
2014,09,14,16,51,25.10
2014,09,14,16,52,25.10
2014,09,14,16,53,25.10
2014,09,14,16,54,25.10
2014,09,14,16,55,25.10
2014,09,14,16,56,25.10
2014,09,14,16,57,25.10
2014,09,14,16,58,25.10
2014,09,14,16,59,25.10
2014,09,14,17,00,25.20
2014,09,14,17,01,25.20
2014,09,14,17,02,25.20
2014,09,14,17,03,25.30
2014,09,14,17,04,25.30
2014,09,14,17,05,25.30
2014,09,14,17,06,25.30
2014,09,14,17,07,25.30
2014,09,14,17,08,25.30
2014,09,14,17,09,25.30
2014,09,14,17,10,25.30
2014,09,14,17,11,25.40
2014,09,14,17,12,25.40
2014,09,14,17,13,25.40
2014,09,14,17,14,25.40
2014,09,14,17,15,25.40
2014,09,14,17,16,25.50
2014,09,14,17,17,25.50
2014,09,14,17,18,25.50
2014,09,14,17,19,25.60
2014,09,14,17,20,25.60
2014,09,14,17,21,25.60
2014,09,14,17,22,25.60